| time (UTC) | temp F | wind direction | speed knots | gust knots | rain 1hr in | rain 24hr in | rain mn in | humidity % | barometer mb |
| 20260906194609 | 71 | 354 | 5.2 | 5.2 | 0.00 | 0.00 | 0.00 | 34 | 1014.1 |
| 20260906193629 | 71 | 325 | 6.1 | 7.0 | 0.00 | 0.00 | 0.00 | 36 | 1014.3 |
| 20260906192609 | 70 | 353 | 5.2 | 6.1 | 0.00 | 0.00 | 0.00 | 37 | 1014.5 |
| 20260906191609 | 69 | 3 | 2.6 | 2.6 | 0.00 | 0.00 | 0.00 | 37 | 1014.6 |
| 20260906190609 | 69 | 334 | 0.9 | 4.3 | 0.00 | 0.00 | 0.00 | 37 | 1014.7 |
| 20260906185609 | 69 | 9 | 2.6 | 4.3 | 0.00 | 0.00 | 0.00 | 40 | 1014.8 |
| 20260906184609 | 68 | 349 | 0.0 | 1.7 | 0.00 | 0.00 | 0.00 | 39 | 1015.0 |
| 20260906183609 | 67 | 354 | 2.6 | 5.2 | 0.00 | 0.00 | 0.00 | 41 | 1015.1 |
| 20260906182608 | 66 | 14 | 1.7 | 4.3 | 0.00 | 0.00 | 0.00 | 42 | 1015.2 |
| 20260906181629 | 66 | 12 | 2.6 | 2.6 | 0.00 | 0.00 | 0.00 | 43 | 1015.2 |
| 20260906180608 | 66 | 12 | 2.6 | 2.6 | 0.00 | 0.00 | 0.00 | 46 | 1015.3 |
| 20260906175608 | 65 | 11 | 1.7 | 3.5 | 0.00 | 0.00 | 0.00 | 46 | 1015.3 |
| 20260906174608 | 65 | 13 | 2.6 | 3.5 | 0.00 | 0.00 | 0.00 | 51 | 1015.3 |
| 20260906173628 | 64 | 17 | 2.6 | 4.3 | 0.00 | 0.00 | 0.00 | 53 | 1015.4 |
| 20260906172608 | 63 | 29 | 2.6 | 5.2 | 0.00 | 0.00 | 0.00 | 54 | 1015.4 |
| 20260906171608 | 63 | 32 | 3.5 | 4.3 | 0.00 | 0.00 | 0.00 | 56 | 1015.5 |
| 20260906170608 | 62 | 23 | 2.6 | 4.3 | 0.00 | 0.00 | 0.00 | 58 | 1015.5 |
| 20260906165607 | 62 | 25 | 2.6 | 3.5 | 0.00 | 0.00 | 0.00 | 58 | 1015.4 |
| 20260906164608 | 62 | 18 | 2.6 | 2.6 | 0.00 | 0.00 | 0.00 | 58 | 1015.5 |
| 20260906163607 | 61 | 32 | 2.6 | 3.5 | 0.00 | 0.00 | 0.00 | 59 | 1015.6 |
| 20260906162608 | 61 | 137 | 0.0 | 2.6 | 0.00 | 0.00 | 0.00 | 60 | 1015.5 |
| 20260906134606 | 51 | 177 | 0.0 | 0.9 | 0.00 | 0.00 | 0.00 | 77 | 1014.9 |
| 20260906133606 | 51 | 177 | 0.0 | 1.7 | 0.00 | 0.00 | 0.00 | 77 | 1014.8 |
| 20260906132606 | 51 | 262 | 1.7 | 2.6 | 0.00 | 0.00 | 0.00 | 77 | 1014.7 |
| 20260906131606 | 52 | 262 | 1.7 | 2.6 | 0.00 | 0.00 | 0.00 | 76 | 1014.6 |
| 20260906101604 | 54 | 262 | 0.0 | 0.0 | 0.00 | 0.01 | 0.00 | 67 | 1013.7 |
| 20260906100604 | 54 | 262 | 0.0 | 0.9 | 0.00 | 0.01 | 0.00 | 67 | 1013.8 |
| 20260906095604 | 54 | 262 | 1.7 | 2.6 | 0.00 | 0.01 | 0.00 | 67 | 1013.8 |
| 20260906094604 | 55 | 262 | 0.9 | 1.7 | 0.00 | 0.01 | 0.00 | 65 | 1013.9 |
| 20260906093604 | 55 | 262 | 1.7 | 1.7 | 0.00 | 0.01 | 0.00 | 64 | 1013.9 |
| 20260906092604 | 56 | 262 | 0.9 | 2.6 | 0.00 | 0.01 | 0.00 | 62 | 1013.9 |
| 20260906062602 | 60 | 318 | 0.9 | 1.7 | 0.00 | 0.01 | 0.00 | 55 | 1014.4 |
| 20260906061602 | 60 | 318 | 0.0 | 0.0 | 0.00 | 0.01 | 0.00 | 54 | 1014.6 |
| 20260906060602 | 60 | 317 | 2.6 | 2.6 | 0.00 | 0.01 | 0.00 | 55 | 1014.3 |
| 20260906055602 | 60 | 320 | 2.6 | 2.6 | 0.00 | 0.01 | 0.01 | 59 | 1014.4 |
| 20260906054602 | 61 | 320 | 1.7 | 2.6 | 0.00 | 0.01 | 0.01 | 60 | 1015.0 |
| 20260906053602 | 61 | 320 | 1.7 | 1.7 | 0.00 | 0.01 | 0.01 | 59 | 1014.9 |
| 20260906052602 | 62 | 320 | 1.7 | 2.6 | 0.00 | 0.01 | 0.01 | 58 | 1015.6 |
| 20260906051601 | 62 | 320 | 0.0 | 0.0 | 0.00 | 0.01 | 0.01 | 56 | 1015.7 |
| 20260906050601 | 62 | 320 | 0.9 | 1.7 | 0.00 | 0.01 | 0.01 | 55 | 1015.7 |
| 20260906045602 | 62 | 320 | 0.0 | 0.0 | 0.00 | 0.01 | 0.01 | 53 | 1015.6 |
| 20260906044621 | 63 | 320 | 0.0 | 0.0 | 0.00 | 0.01 | 0.01 | 52 | 1015.5 |
| 20260906043601 | 63 | 320 | 0.9 | 1.7 | 0.00 | 0.01 | 0.01 | 51 | 1015.6 |
| 20260906042601 | 64 | 320 | 1.7 | 2.6 | 0.00 | 0.01 | 0.01 | 50 | 1015.3 |
| 20260906041601 | 64 | 320 | 2.6 | 2.6 | 0.00 | 0.01 | 0.01 | 48 | 1014.9 |
| 20260906040601 | 64 | 314 | 2.6 | 2.6 | 0.00 | 0.01 | 0.01 | 48 | 1015.1 |
| 20260906035601 | 64 | 311 | 1.7 | 2.6 | 0.00 | 0.01 | 0.01 | 48 | 1015.4 |
| 20260906034601 | 65 | 311 | 0.0 | 0.9 | 0.00 | 0.01 | 0.01 | 48 | 1015.4 |
| 20260906033601 | 65 | 314 | 1.7 | 2.6 | 0.00 | 0.01 | 0.01 | 49 | 1015.3 |
| 20260906032601 | 65 | 316 | 0.9 | 3.5 | 0.00 | 0.01 | 0.01 | 49 | 1015.2 |
| 20260906031601 | 65 | 316 | 2.6 | 2.6 | 0.00 | 0.01 | 0.01 | 50 | 1015.2 |
| 20260906002559 | 72 | 358 | 4.3 | 4.3 | 0.00 | 0.01 | 0.01 | 40 | 1015.5 |
| 20260906001559 | 72 | 353 | 2.6 | 2.6 | 0.00 | 0.01 | 0.01 | 39 | 1015.4 |
| 20260906000559 | 73 | 349 | 2.6 | 3.5 | 0.00 | 0.01 | 0.01 | 37 | 1015.5 |
| 20260905235559 | 73 | 349 | 2.6 | 6.1 | 0.00 | 0.01 | 0.01 | 37 | 1015.6 |
| 20260905234619 | 74 | 14 | 3.5 | 4.3 | 0.00 | 0.01 | 0.01 | 37 | 1015.8 |
| 20260905233558 | 74 | 316 | 0.9 | 6.1 | 0.00 | 0.01 | 0.01 | 37 | 1015.8 |
| 20260905232619 | 74 | 339 | 4.3 | 4.3 | 0.00 | 0.01 | 0.01 | 38 | 1015.8 |
| 20260905231559 | 75 | 339 | 3.5 | 3.5 | 0.00 | 0.01 | 0.01 | 37 | 1015.9 |
| 20260905230558 | 75 | 339 | 2.6 | 3.5 | 0.00 | 0.01 | 0.01 | 37 | 1015.9 |
| 20260905225558 | 75 | 324 | 3.5 | 6.1 | 0.00 | 0.01 | 0.01 | 36 | 1016.2 |
| 20260905224558 | 74 | 322 | 2.6 | 2.6 | 0.00 | 0.01 | 0.01 | 36 | 1016.4 |
| 20260905223558 | 75 | 344 | 1.7 | 3.5 | 0.00 | 0.01 | 0.01 | 35 | 1016.6 |
| 20260905222558 | 74 | 288 | 2.6 | 5.2 | 0.00 | 0.01 | 0.01 | 37 | 1016.8 |
| 20260905221558 | 75 | 280 | 0.0 | 1.7 | 0.00 | 0.01 | 0.01 | 37 | 1016.9 |
| 20260905220558 | 74 | 281 | 0.9 | 2.6 | 0.00 | 0.01 | 0.01 | 39 | 1016.9 |
| 20260905215558 | 73 | 280 | 0.9 | 3.5 | 0.00 | 0.01 | 0.01 | 38 | 1017.1 |
| 20260905214558 | 73 | 274 | 2.6 | 2.6 | 0.00 | 0.01 | 0.01 | 39 | 1017.4 |
| 20260905213557 | 74 | 195 | 0.0 | 3.5 | 0.00 | 0.02 | 0.01 | 40 | 1017.4 |
| 20260905212557 | 73 | 243 | 1.7 | 4.3 | 0.00 | 0.02 | 0.01 | 42 | 1017.4 |
| 20260905211558 | 73 | 201 | 0.0 | 2.6 | 0.00 | 0.02 | 0.01 | 41 | 1017.7 |
| 20260905210557 | 73 | 155 | 1.7 | 5.2 | 0.00 | 0.03 | 0.01 | 45 | 1017.8 |
| 20260905205557 | 72 | 301 | 0.0 | 4.3 | 0.00 | 0.04 | 0.01 | 41 | 1017.9 |
| 20260905204557 | 73 | 292 | 2.6 | 2.6 | 0.00 | 0.04 | 0.01 | 42 | 1018.0 |
| 20260905203557 | 71 | 35 | 2.6 | 3.5 | 0.00 | 0.04 | 0.01 | 44 | 1018.0 |
| 20260905202557 | 71 | 309 | 1.7 | 7.0 | 0.00 | 0.04 | 0.01 | 45 | 1018.1 |
| 20260905201557 | 69 | 324 | 2.6 | 3.5 | 0.00 | 0.04 | 0.01 | 45 | 1018.2 |
| 20260905200617 | 69 | 25 | 2.6 | 2.6 | 0.00 | 0.05 | 0.01 | 42 | 1018.3 |
| 20260905195557 | 69 | 71 | 0.9 | 2.6 | 0.00 | 0.05 | 0.01 | 46 | 1018.4 |